Presque Isle, ME

7:20 AM EST on February 23, 2017 (GMT -0500)
Northern Maine Regional At Presque Isle

Weather History for KPQI - April, 2013

Change the Weather History Date:

Wednesday, April 17, 2013

  Actual Average Record
Temperature  
Mean Temperature 42 °F -  
Max Temperature 50 °F 51 °F 73 °F (2012)
Min Temperature 32 °F 30 °F 6 °F (2003)
Degree Days  
Heating Degree Days 24    
Moisture  
Dew Point 23 °F    
Average Humidity 48    
Maximum Humidity 76    
Minimum Humidity 25    
Precipitation  
Precipitation 0.00 in - - ()
Sea Level Pressure  
Sea Level Pressure 29.99 in    
Wind  
Wind Speed 13 mph (WNW)    
Max Wind Speed 28 mph    
Max Gust Speed 37 mph    
Visibility 10 miles    
Events      
Averages and records for this station are not official NWS values.
T = Trace of Precipitation, MM = Missing Value Source: NWS Daily Summary

Daily Weather History Graph

Daily Weather History Graph

Search for Another Location

Airport or City:

Trip Planner

Search our weather history database for the weather conditions in past years. The results will help you decide how hot, cold, wet, or windy it might be!

Date:

Astronomy

Apr. 17, 2013 Rise Set
Actual Time 5:40 AM EDT 7:23 PM EDT
Civil Twilight 5:08 AM EDT 7:55 PM EDT
Nautical Twilight 4:29 AM EDT 8:34 PM EDT
Astronomical Twilight 3:47 AM EDT 9:17 PM EDT
Moon 10:44 AM EDT (4/17) 1:06 AM EDT (4/17)
Length of Visible Light 14h 46m
Length of Day
13h 42m
Waxing Crescent, 42% of the Moon is Illuminated
Apr 17
Waxing Crescent
Apr 18
First Quarter
Apr 25
Full
May 2
Last Quarter
May 9
New

Hourly Weather History & Observations

Time (EDT) Temp. Windchill Dew Point Humidity Pressure Visibility Wind Dir Wind Speed Gust Speed Precip Events Conditions
12:15 AM 46.4 °F 40.7 °F 39.2 °F 76% 29.73 in 10.0 mi SW 12.7 mph 19.6 mph N/A   Overcast
12:35 AM 46.4 °F 41.5 °F 39.2 °F 76% 29.73 in 10.0 mi WSW 10.4 mph 17.3 mph N/A   Overcast
12:55 AM 46.4 °F 41.9 °F 37.4 °F 71% 29.75 in 10.0 mi WSW 9.2 mph - N/A   Overcast
1:15 AM 44.6 °F 39.2 °F 37.4 °F 76% 29.76 in 10.0 mi NW 10.4 mph 36.8 mph N/A   Overcast
1:35 AM 42.8 °F 35.8 °F 33.8 °F 70% 29.77 in 10.0 mi WNW 13.8 mph 20.7 mph N/A   Scattered Clouds
1:55 AM 42.8 °F 36.6 °F 33.8 °F 70% 29.77 in 10.0 mi WNW 11.5 mph 23.0 mph N/A   Clear
2:15 AM 41.0 °F 34.7 °F 32.0 °F 70% 29.78 in 10.0 mi West 10.4 mph - N/A   Clear
2:35 AM 41.0 °F 33.9 °F 32.0 °F 70% 29.78 in 10.0 mi West 12.7 mph - N/A   Clear
2:55 AM 39.2 °F 32.5 °F 30.2 °F 70% 29.80 in 10.0 mi WNW 10.4 mph - N/A   Clear
3:15 AM 39.2 °F 33.0 °F 30.2 °F 70% 29.80 in 10.0 mi West 9.2 mph 17.3 mph N/A   Clear
3:35 AM 39.2 °F 33.0 °F 28.4 °F 65% 29.80 in 10.0 mi West 9.2 mph - N/A   Clear
3:55 AM 39.2 °F 32.0 °F 30.2 °F 70% 29.81 in 10.0 mi WSW 11.5 mph - N/A   Clear
4:15 AM 39.2 °F 32.0 °F 28.4 °F 65% 29.82 in 10.0 mi West 11.5 mph - N/A   Clear
4:35 AM 39.2 °F 31.6 °F 28.4 °F 65% 29.83 in 10.0 mi West 12.7 mph 18.4 mph N/A   Clear
4:55 AM 39.2 °F 31.2 °F 28.4 °F 65% 29.83 in 10.0 mi West 13.8 mph 21.9 mph N/A   Clear
5:15 AM 39.2 °F 30.5 °F 28.4 °F 65% 29.83 in 10.0 mi West 16.1 mph 20.7 mph N/A   Clear
5:35 AM 37.4 °F 29.3 °F 28.4 °F 70% 29.85 in 10.0 mi West 12.7 mph 18.4 mph N/A   Clear
5:55 AM 37.4 °F 28.2 °F 28.4 °F 70% 29.85 in 10.0 mi West 16.1 mph 20.7 mph N/A   Clear
6:15 AM 37.4 °F 28.9 °F 28.4 °F 70% 29.86 in 10.0 mi West 13.8 mph 20.7 mph N/A   Clear
6:35 AM 37.4 °F 28.9 °F 28.4 °F 70% 29.88 in 10.0 mi West 13.8 mph 19.6 mph N/A   Clear
6:55 AM 39.2 °F 30.8 °F 28.4 °F 65% 29.89 in 10.0 mi West 15.0 mph 19.6 mph N/A   Clear
7:15 AM 39.2 °F 31.2 °F 28.4 °F 65% 29.90 in 10.0 mi West 13.8 mph 23.0 mph N/A   Clear
7:35 AM 39.2 °F 31.6 °F 28.4 °F 65% 29.90 in 10.0 mi West 12.7 mph 23.0 mph N/A   Clear
7:55 AM 41.0 °F 33.5 °F 28.4 °F 61% 29.92 in 10.0 mi WNW 13.8 mph 20.7 mph N/A   Clear
8:15 AM 42.8 °F 35.1 °F 28.4 °F 57% 29.92 in 10.0 mi WNW 16.1 mph 23.0 mph N/A   Clear
8:35 AM 42.8 °F 34.5 °F 28.4 °F 57% 29.93 in 10.0 mi WNW 18.4 mph 24.2 mph N/A   Scattered Clouds
8:55 AM 44.6 °F 38.8 °F 28.4 °F 53% 29.94 in 10.0 mi NW 11.5 mph 21.9 mph N/A   Mostly Cloudy
9:15 AM 44.6 °F 37.4 °F 28.4 °F 53% 29.94 in 10.0 mi WNW 16.1 mph 23.0 mph N/A   Mostly Cloudy
9:35 AM 46.4 °F 37.5 °F 24.8 °F 43% 29.94 in 10.0 mi North 27.6 mph 36.8 mph N/A   Mostly Cloudy
9:55 AM 46.4 °F 40.1 °F 26.6 °F 46% 29.95 in 10.0 mi WNW 15.0 mph 20.7 mph N/A   Mostly Cloudy
10:15 AM 46.4 °F 39.5 °F 24.8 °F 43% 29.96 in 10.0 mi NW 17.3 mph 28.8 mph N/A   Mostly Cloudy
10:35 AM 48.2 °F - 24.8 °F 40% 29.97 in 10.0 mi WNW 21.9 mph 27.6 mph N/A   Mostly Cloudy
11:15 AM 48.2 °F - 23.0 °F 37% 29.98 in 10.0 mi NW 20.7 mph 25.3 mph N/A   Scattered Clouds
11:35 AM 48.2 °F - 21.2 °F 34% 29.97 in 10.0 mi NNW 21.9 mph 32.2 mph N/A   Clear
11:55 AM 48.2 °F - 23.0 °F 37% 29.98 in 10.0 mi NW 17.3 mph 27.6 mph N/A   Clear
12:15 PM 48.2 °F - 21.2 °F 34% 29.99 in 10.0 mi NW 21.9 mph 29.9 mph N/A   Clear
12:35 PM 48.2 °F - 21.2 °F 34% 29.98 in 10.0 mi NW 15.0 mph 26.5 mph N/A   Clear
12:55 PM 50.0 °F - 21.2 °F 32% 29.99 in 10.0 mi NW 20.7 mph 25.3 mph N/A   Clear
1:15 PM 50.0 °F - 21.2 °F 32% 30.01 in 10.0 mi NW 19.6 mph 26.5 mph N/A   Clear
1:35 PM 48.2 °F - 21.2 °F 34% 30.01 in 10.0 mi NW 23.0 mph 27.6 mph N/A   Clear
1:55 PM 48.2 °F - 21.2 °F 34% 30.01 in 10.0 mi NNW 21.9 mph 27.6 mph N/A   Clear
2:15 PM 48.2 °F - 21.2 °F 34% 30.01 in 10.0 mi WNW 25.3 mph 31.1 mph N/A   Clear
2:35 PM 48.2 °F - 19.4 °F 32% 30.02 in 10.0 mi NNW 23.0 mph 28.8 mph N/A   Clear
2:55 PM 48.2 °F - 19.4 °F 32% 30.03 in 10.0 mi NNW 20.7 mph 28.8 mph N/A   Clear
3:35 PM 48.2 °F - 17.6 °F 30% 30.05 in 10.0 mi NNW 19.6 mph 24.2 mph N/A   Clear
3:55 PM 48.2 °F - 14.0 °F 25% 30.06 in 10.0 mi NW 19.6 mph 28.8 mph N/A   Clear
4:35 PM 48.2 °F - 15.8 °F 27% 30.08 in 10.0 mi NNW 19.6 mph 25.3 mph N/A   Clear
4:55 PM 46.4 °F 38.3 °F 15.8 °F 29% 30.10 in 10.0 mi NNW 23.0 mph 32.2 mph N/A   Clear
5:15 PM 46.4 °F 40.4 °F 14.0 °F 27% 30.11 in 10.0 mi NNW 13.8 mph 26.5 mph N/A   Clear
5:35 PM 46.4 °F 39.8 °F 12.2 °F 25% 30.12 in 10.0 mi NNW 16.1 mph 27.6 mph N/A   Clear
5:55 PM 46.4 °F 39.8 °F 12.2 °F 25% 30.14 in 10.0 mi NW 16.1 mph 23.0 mph N/A   Clear
6:15 PM 46.4 °F 39.5 °F 14.0 °F 27% 30.15 in 10.0 mi NNW 17.3 mph 23.0 mph N/A   Clear
6:35 PM 44.6 °F 39.2 °F 14.0 °F 29% 30.17 in 10.0 mi NNW 10.4 mph 21.9 mph N/A   Clear
6:55 PM 44.6 °F 37.8 °F 14.0 °F 29% 30.17 in 10.0 mi NNW 15.0 mph 21.9 mph N/A   Clear
7:15 PM 42.8 °F 38.6 °F 15.8 °F 34% 30.18 in 10.0 mi NW 6.9 mph - N/A   Clear
7:35 PM 42.8 °F 38.0 °F 14.0 °F 31% 30.18 in 10.0 mi NW 8.1 mph - N/A   Clear
7:55 PM 41.0 °F 36.4 °F 15.8 °F 36% 30.19 in 10.0 mi NW 6.9 mph - N/A   Clear
8:15 PM 39.2 °F 35.0 °F 15.8 °F 39% 30.21 in 10.0 mi NW 5.8 mph - N/A   Clear
8:35 PM 39.2 °F 33.6 °F 15.8 °F 39% 30.23 in 10.0 mi NW 8.1 mph - N/A   Clear
8:55 PM 37.4 °F 31.4 °F 15.8 °F 41% 30.23 in 10.0 mi WNW 8.1 mph - N/A   Clear
9:15 PM 37.4 °F 32.1 °F 15.8 °F 41% 30.23 in 10.0 mi NW 6.9 mph - N/A   Clear
9:35 PM 37.4 °F 32.1 °F 15.8 °F 41% 30.24 in 10.0 mi WNW 6.9 mph - N/A   Clear
9:55 PM 37.4 °F 32.1 °F 15.8 °F 41% 30.25 in 10.0 mi NW 6.9 mph - N/A   Clear
10:15 PM 37.4 °F 32.8 °F 15.8 °F 41% 30.25 in 10.0 mi NW 5.8 mph - N/A   Clear
10:55 PM 35.6 °F 32.8 °F 15.8 °F 44% 30.26 in 10.0 mi NW 3.5 mph - N/A   Clear
11:15 PM 33.8 °F 29.6 °F 15.8 °F 48% 30.26 in 10.0 mi NNW 4.6 mph - N/A   Clear
11:35 PM 33.8 °F 29.6 °F 15.8 °F 48% 30.27 in 10.0 mi NW 4.6 mph - N/A   Clear
11:55 PM 32.0 °F 26.4 °F 15.8 °F 51% 30.28 in 10.0 mi NW 5.8 mph - N/A   Clear